Overview Statistics Trail Chart Weather Telemetry Raw packets
 

This is the latest recevied weather packets stored in our database for station/object OK1UZT-13. If no packets are shown the sender has not sent any weather packets the latest 10 day(s).

<< 1 2 3 4 >>
Time Temp. Humidity Pressure Rain* Wind** Luminosity Snow
1788566021 17.22° C 63% 1014 hPa - - - -
1788565421 17.22° C 65% 1014.1 hPa - - - -
1788564821 17.22° C 67% 1014.1 hPa - - - -
1788564221 17.22° C 70% 1013.9 hPa - - - -
1788563621 17.22° C 72% 1013.8 hPa - - - -
1788563021 16.67° C 73% 1013.8 hPa - - - -
1788562421 16.67° C 72% 1013 hPa - - - -
1788561821 16.67° C 72% 1012.9 hPa - - - -
1788561221 17.22° C 70% 1012.7 hPa - - - -
1788560621 17.78° C 68% 1011.6 hPa - - - -
1788560021 18.33° C 66% 1011.1 hPa - - - -
1788559421 18.89° C 64% 1010.9 hPa - - - -
1788558821 20.56° C 63% 1010.5 hPa - - - -
1788558221 22.78° C 59% 1010.4 hPa - - - -
1788557621 22.22° C 60% 1010.2 hPa - - - -
1788557021 22.78° C 58% 1010.2 hPa - - - -
1788556421 22.78° C 58% 1010 hPa - - - -
1788555822 23.33° C 57% 1009.9 hPa - - - -
1788555221 23.33° C 57% 1009.9 hPa - - - -
1788554621 23.33° C 57% 1010 hPa - - - -
1788554021 23.33° C 57% 1009.9 hPa - - - -
1788553421 23.33° C 57% 1009.8 hPa - - - -
1788552821 23.33° C 57% 1009.9 hPa - - - -
1788552221 23.33° C 57% 1010 hPa - - - -
1788551621 23.89° C 56% 1010.1 hPa - - - -

* Rain since midnight (hover to see other rain measurements)
** Current wind speed in m/s (hover to see current wind gust speed)